EW2575 Weather Reports


Display with metric or nautical units.
time (UTC)temp
F
wind
direction
speed
MPH
gust
MPH
rain 1hr
in
rain 24hr
in
rain mn
in
humidity
%
barometer
mb
20260509231051 56 124 7.0 9.0 0.00 0.00 0.00 84 1018.4
20260509230554 56 123 6.0 9.0 0.00 0.00 0.00 85 1018.4
20260509230050 56 124 5.0 9.0 0.00 0.00 0.00 85 1018.5
20260509225552 56 113 6.0 10.0 0.00 0.00 0.00 85 1018.6
20260509225048 56 99 6.0 10.0 0.00 0.00 0.00 85 1018.7
20260509224547 55 109 7.0 10.0 0.00 0.00 0.00 86 1018.6
20260509224051 55 115 7.0 12.0 0.00 0.00 0.00 86 1018.6
20260509223546 56 117 8.0 12.0 0.00 0.00 0.00 86 1018.5
20260509223050 56 121 7.0 10.0 0.00 0.00 0.00 86 1018.3
20260509222545 56 104 7.0 10.0 0.00 0.00 0.00 86 1018.3
20260509222045 56 126 6.0 10.0 0.00 0.00 0.00 86 1018.3
20260509221545 56 113 5.0 8.0 0.00 0.00 0.00 86 1018.3
20260509221045 57 129 4.0 7.0 0.00 0.00 0.00 86 1018.3
20260509220548 57 137 3.0 5.0 0.00 0.00 0.00 86 1018.3
20260509220044 57 122 3.0 4.0 0.00 0.00 0.00 86 1018.2
20260509215546 57 119 2.0 4.0 0.00 0.00 0.00 86 1018.2
20260509215044 57 121 2.0 4.0 0.00 0.00 0.00 86 1018.2
20260509214545 57 113 2.0 6.0 0.00 0.00 0.00 86 1018.1
20260509214043 57 114 3.0 4.0 0.00 0.00 0.00 86 1018.0
20260509213545 57 118 2.0 4.0 0.00 0.00 0.00 86 1018.0
20260509213043 57 108 2.0 5.0 0.00 0.00 0.00 86 1018.0
20260509212543 57 145 2.0 5.0 0.00 0.00 0.00 86 1018.1
20260509212043 57 196 2.0 5.0 0.00 0.00 0.00 86 1018.2
20260509211542 57 209 2.0 6.0 0.00 0.00 0.00 85 1018.2
20260509211042 58 205 3.0 6.0 0.00 0.00 0.00 85 1018.2
20260509210546 58 213 4.0 8.0 0.00 0.00 0.00 85 1018.1
20260509210041 58 227 5.0 8.0 0.00 0.00 0.00 84 1018.1
20260509205540 58 219 4.0 9.0 0.00 0.00 0.00 84 1018.0
20260509205040 58 217 4.0 10.0 0.00 0.00 0.00 83 1017.8
20260509204538 58 235 5.0 9.0 0.00 0.00 0.00 82 1017.8
20260509204039 58 192 5.0 10.0 0.00 0.00 0.00 81 1017.7
20260509203543 59 217 6.0 11.0 0.00 0.00 0.00 81 1017.7
20260509203039 58 205 5.0 9.0 0.00 0.00 0.00 80 1017.8
20260509202538 58 194 5.0 10.0 0.00 0.00 0.00 81 1017.7
20260509202041 59 214 4.0 11.0 0.00 0.00 0.00 81 1017.7
20260509201547 59 220 6.0 12.0 0.00 0.00 0.00 80 1017.7
20260509201038 59 204 6.0 11.0 0.00 0.00 0.00 79 1017.6
20260509200537 59 209 6.0 11.0 0.00 0.00 0.00 78 1017.5
20260509200045 59 224 4.0 9.0 0.00 0.00 0.00 78 1017.5
20260509195537 59 228 7.0 10.0 0.00 0.00 0.00 78 1017.4
20260509195036 59 257 4.0 9.0 0.00 0.00 0.00 78 1017.4
20260509194536 60 240 6.0 11.0 0.00 0.00 0.00 77 1017.4
20260509194038 60 258 6.0 11.0 0.00 0.00 0.00 76 1017.3
20260509193536 60 266 6.0 11.0 0.00 0.00 0.00 76 1017.3
20260509193039 61 250 5.0 10.0 0.00 0.00 0.00 75 1017.3
20260509192535 61 279 6.0 10.0 0.00 0.00 0.00 76 1017.3
20260509192035 61 275 7.0 10.0 0.00 0.00 0.00 75 1017.3
20260509191535 61 246 5.0 10.0 0.00 0.00 0.00 75 1017.3
20260509191035 61 265 7.0 10.0 0.00 0.00 0.00 76 1017.2
20260509190537 61 227 7.0 13.0 0.00 0.00 0.00 76 1017.2
20260509190036 61 313 8.0 13.0 0.00 0.00 0.00 76 1017.2
20260509185534 61 320 9.0 14.0 0.00 0.00 0.00 77 1017.2
20260509185034 60 263 8.0 15.0 0.00 0.00 0.00 79 1017.2
20260509184541 60 219 9.0 16.0 0.00 0.00 0.00 80 1017.2
20260509184034 60 232 9.0 17.0 0.00 0.00 0.00 80 1017.1
20260509183533 60 248 11.0 17.0 0.00 0.00 0.00 80 1017.1
20260509183036 60 234 10.0 15.0 0.00 0.00 0.00 79 1017.1
20260509182534 60 257 10.0 15.0 0.00 0.00 0.00 79 1017.1
20260509182032 61 234 10.0 15.0 0.00 0.00 0.00 78 1017.0
20260509181535 61 246 9.0 15.0 0.00 0.00 0.00 78 1017.0
20260509181033 62 243 8.0 14.0 0.00 0.00 0.00 77 1017.0
20260509180531 62 248 9.0 15.0 0.00 0.00 0.00 74 1017.0
20260509180032 62 259 10.0 14.0 0.00 0.00 0.00 72 1016.9
20260509175531 62 268 7.0 15.0 0.00 0.00 0.00 69 1017.0
20260509175034 62 271 8.0 15.0 0.00 0.00 0.00 71 1017.1
20260509174531 62 255 9.0 15.0 0.00 0.00 0.00 69 1017.0
20260509174032 62 275 8.0 15.0 0.00 0.00 0.00 69 1017.0
20260509173530 62 279 11.0 16.0 0.00 0.00 0.00 67 1017.1
20260509173034 62 5 10.0 17.0 0.00 0.00 0.00 68 1017.0
20260509172530 62 277 11.0 17.0 0.00 0.00 0.00 67 1017.0
20260509172034 62 289 10.0 18.0 0.00 0.00 0.00 69 1017.0
20260509171540 62 267 11.0 18.0 0.00 0.00 0.00 68 1017.0
20260509171029 62 257 10.0 16.0 0.00 0.00 0.00 66 1017.0
20260509170530 62 262 12.0 16.0 0.00 0.00 0.00 65 1016.9
20260509170029 63 259 10.0 15.0 0.00 0.00 0.00 65 1017.0
20260509165529 63 277 11.0 16.0 0.00 0.00 0.00 64 1017.0
20260509165029 63 327 10.0 16.0 0.00 0.00 0.00 63 1016.9
20260509164529 63 282 9.0 15.0 0.00 0.00 0.00 63 1016.9
20260509164028 64 279 7.0 17.0 0.00 0.00 0.00 64 1016.9
20260509163530 63 254 9.0 17.0 0.00 0.00 0.00 62 1017.0
20260509163027 63 282 11.0 16.0 0.00 0.00 0.00 63 1016.9
20260509162531 64 294 11.0 17.0 0.00 0.00 0.00 61 1016.8
20260509162030 64 276 9.0 18.0 0.00 0.00 0.00 62 1016.9
20260509161530 64 288 7.0 17.0 0.00 0.00 0.00 62 1016.9
20260509161027 63 278 10.0 17.0 0.00 0.00 0.00 64 1016.8
20260509160527 64 275 9.0 18.0 0.00 0.00 0.00 62 1016.8
20260509160027 64 280 12.0 18.0 0.00 0.00 0.00 61 1016.7
20260509155526 64 261 12.0 19.0 0.00 0.01 0.00 63 1016.7
20260509155026 64 355 9.0 19.0 0.00 0.01 0.00 62 1016.7
20260509154529 64 265 11.0 18.0 0.00 0.01 0.00 63 1016.7
20260509154025 64 284 10.0 20.0 0.00 0.01 0.00 63 1016.7
20260509153526 64 304 11.0 20.0 0.00 0.01 0.00 61 1016.7
20260509153025 64 275 12.0 17.0 0.00 0.01 0.00 63 1016.7
20260509152525 64 257 8.0 21.0 0.00 0.01 0.00 64 1016.7
20260509152026 64 267 14.0 21.0 0.00 0.01 0.00 63 1016.6
20260509151624 64 307 13.0 19.0 0.00 0.01 0.00 64 1016.7
20260509151023 65 281 10.0 20.0 0.00 0.01 0.00 62 1016.7
20260509150524 64 275 13.0 20.0 0.00 0.01 0.00 64 1016.7
20260509150024 65 225 8.0 19.0 0.00 0.01 0.00 63 1016.8
20260509145523 65 260 12.0 19.0 0.00 0.08 0.00 64 1016.8
20260509145023 65 267 12.0 18.0 0.00 0.08 0.00 63 1016.8
20260509144521 65 277 9.0 18.0 0.00 0.08 0.00 64 1017.0
20260509144021 64 302 12.0 16.0 0.00 0.08 0.00 66 1017.1
20260509143527 64 279 10.0 20.0 0.00 0.08 0.00 66 1017.1
20260509143024 64 263 10.0 17.0 0.00 0.08 0.00 68 1017.1
20260509142521 64 264 9.0 17.0 0.00 0.08 0.00 69 1017.1
20260509142019 64 285 8.0 17.0 0.00 0.08 0.00 66 1017.1
20260509141524 65 315 7.0 18.0 0.00 0.08 0.00 65 1017.2
20260509141019 64 277 11.0 18.0 0.00 0.08 0.00 65 1017.3
20260509140517 64 286 8.0 19.0 0.00 0.08 0.00 66 1017.3
20260509140017 64 270 13.0 19.0 0.00 0.08 0.00 65 1017.4
20260509135516 64 252 11.0 20.0 0.00 0.08 0.00 65 1017.4
20260509135017 63 306 10.0 14.0 0.00 0.08 0.00 66 1017.5
20260509134514 64 288 6.0 13.0 0.00 0.08 0.00 67 1017.5
20260509134014 63 261 6.0 15.0 0.00 0.08 0.00 71 1017.5
20260509133512 62 267 7.0 15.0 0.00 0.08 0.00 72 1017.5
20260509133012 63 345 8.0 14.0 0.00 0.08 0.00 73 1017.5
20260509132512 62 255 3.0 13.0 0.00 0.08 0.00 76 1017.5
20260509132012 62 260 9.0 13.0 0.00 0.08 0.00 73 1017.5
20260509131517 62 288 7.0 14.0 0.00 0.08 0.00 75 1017.6
20260509131010 61 269 9.0 14.0 0.00 0.08 0.00 76 1017.7
20260509130510 61 257 8.0 13.0 0.00 0.08 0.00 77 1017.7
20260509130010 61 271 8.0 14.0 0.00 0.08 0.00 78 1017.8
20260509125514 62 279 9.0 15.0 0.00 0.08 0.00 80 1017.8
20260509125008 61 249 10.0 15.0 0.00 0.08 0.00 80 1017.8
20260509124511 61 248 11.0 15.0 0.00 0.08 0.00 81 1017.8
20260509124007 61 275 5.0 15.0 0.00 0.08 0.00 82 1017.9
20260509123507 60 265 9.0 15.0 0.00 0.08 0.00 83 1017.9
20260509123007 61 295 9.0 14.0 0.00 0.08 0.00 84 1017.8
20260509122508 60 284 5.0 16.0 0.00 0.08 0.00 85 1017.8
20260509122006 61 267 9.0 16.0 0.00 0.08 0.00 85 1017.8
20260509121517 61 269 10.0 14.0 0.00 0.08 0.00 84 1017.7
20260509121005 61 264 8.0 14.0 0.00 0.08 0.00 83 1017.8
20260509120505 61 242 10.0 15.0 0.00 0.08 0.00 81 1017.7
20260509120007 61 266 10.0 15.0 0.00 0.08 0.00 81 1017.8
20260509115502 61 271 6.0 12.0 0.00 0.08 0.00 82 1017.9
20260509115004 60 273 6.0 12.0 0.00 0.08 0.00 83 1017.8
20260509114607 60 231 4.0 13.0 0.00 0.08 0.00 83 1017.8
20260509114002 60 284 8.0 12.0 0.00 0.08 0.00 83 1017.9
20260509113601 60 333 6.0 12.0 0.00 0.08 0.00 82 1017.9
20260509113100 60 271 9.0 12.0 0.00 0.08 0.00 81 1017.9
20260509112559 60 286 4.0 12.0 0.00 0.08 0.00 83 1017.8
20260509112101 60 246 8.0 12.0 0.00 0.08 0.00 84 1017.9
20260509111559 60 261 9.0 12.0 0.00 0.08 0.00 83 1017.8
20260509111059 60 257 8.0 12.0 0.00 0.08 0.00 82 1017.8
20260509110558 60 290 2.0 11.0 0.00 0.08 0.00 82 1017.8
20260509110059 60 236 7.0 12.0 0.00 0.08 0.00 82 1017.7
20260509105559 60 263 7.0 12.0 0.00 0.08 0.00 81 1017.8
20260509105056 60 272 4.0 12.0 0.00 0.08 0.00 82 1017.7
20260509104556 60 274 5.0 10.0 0.00 0.08 0.00 83 1017.7
20260509104055 60 295 2.0 8.0 0.00 0.08 0.00 84 1017.6
20260509103555 60 287 3.0 10.0 0.00 0.08 0.00 84 1017.6
20260509103055 60 315 4.0 12.0 0.00 0.08 0.00 85 1017.6
20260509102555 60 279 7.0 12.0 0.00 0.08 0.00 85 1017.6
20260509102054 60 271 7.0 13.0 0.00 0.08 0.00 84 1017.6
20260509101553 59 267 9.0 13.0 0.00 0.08 0.00 86 1017.6
20260509101051 59 303 5.0 11.0 0.00 0.08 0.00 89 1017.6
20260509100550 58 284 7.0 11.0 0.00 0.08 0.00 89 1017.5
20260509100055 58 279 5.0 9.0 0.00 0.08 0.00 90 1017.6
20260509095548 57 236 3.0 5.0 0.00 0.08 0.00 90 1017.5
20260509095049 57 242 3.0 5.0 0.00 0.08 0.00 90 1017.4
20260509094551 57 300 2.0 6.0 0.00 0.08 0.00 90 1017.4
20260509094046 57 234 3.0 8.0 0.00 0.08 0.00 90 1017.4
20260509093546 57 266 4.0 7.0 0.00 0.08 0.00 89 1017.4
20260509093046 57 269 4.0 9.0 0.00 0.08 0.00 89 1017.4
20260509092545 57 282 5.0 9.0 0.00 0.08 0.00 88 1017.4
20260509092047 58 253 5.0 9.0 0.00 0.08 0.00 87 1017.3
20260509091544 58 254 6.0 9.0 0.00 0.08 0.00 86 1017.3
20260509091045 58 238 4.0 8.0 0.00 0.08 0.00 85 1017.3
20260509090542 58 202 3.0 7.0 0.00 0.08 0.00 85 1017.2
20260509090041 58 273 2.0 8.0 0.00 0.08 0.00 85 1017.2
20260509085540 58 259 3.0 8.0 0.00 0.08 0.00 84 1017.2
20260509085041 58 246 3.0 7.0 0.00 0.08 0.00 84 1017.1
20260509084539 58 247 3.0 6.0 0.00 0.08 0.00 83 1017.1
20260509084040 58 217 1.0 3.0 0.00 0.08 0.00 83 1017.0
20260509083541 57 252 1.0 4.0 0.00 0.08 0.00 83 1017.0
20260509083040 57 229 1.0 4.0 0.00 0.08 0.00 84 1016.9
20260509082536 57 165 2.0 6.0 0.00 0.08 0.00 84 1017.0
20260509082035 57 177 3.0 8.0 0.00 0.08 0.00 84 1016.9
20260509081543 57 248 2.0 8.0 0.00 0.08 0.00 84 1016.8
20260509081033 56 219 5.0 8.0 0.00 0.08 0.00 84 1016.8
20260509080533 56 113 2.0 8.0 0.00 0.08 0.00 85 1016.7
20260509080032 55 128 5.0 8.0 0.00 0.08 0.00 85 1016.7
20260509075531 55 101 5.0 8.0 0.00 0.08 0.00 85 1016.5
20260509075030 54 119 5.0 11.0 0.00 0.08 0.00 85 1016.6
20260509074531 54 127 5.0 11.0 0.00 0.08 0.00 86 1016.5
20260509074028 53 119 7.0 11.0 0.00 0.08 0.00 85 1016.4
20260509073527 53 128 8.0 11.0 0.00 0.08 0.00 86 1016.4
20260509073026 53 116 7.0 11.0 0.00 0.08 0.00 86 1016.3
20260509072532 52 129 8.0 12.0 0.00 0.08 0.00 86 1016.3
20260509072025 52 98 8.0 11.0 0.00 0.08 0.00 85 1016.3
20260509071525 52 127 8.0 12.0 0.00 0.08 0.00 85 1016.3
20260509071024 52 117 9.0 12.0 0.00 0.08 0.00 84 1016.3
20260509070524 53 136 8.0 12.0 0.00 0.08 0.00 85 1016.2
20260509070023 52 132 7.0 10.0 0.00 0.08 0.00 84 1016.2
20260509065525 52 115 8.0 10.0 0.00 0.08 0.00 84 1016.2
20260509065021 53 115 7.0 9.0 0.00 0.08 0.00 86 1016.2
20260509064520 52 125 6.0 10.0 0.00 0.08 0.00 84 1016.1
20260509064023 52 140 7.0 12.0 0.00 0.08 0.00 84 1016.0
20260509063518 52 131 9.0 12.0 0.00 0.08 0.00 84 1016.0
20260509063019 51 124 8.0 12.0 0.00 0.08 0.00 84 1015.9
20260509062518 51 117 8.0 12.0 0.00 0.08 0.00 84 1015.8
20260509062018 51 117 6.0 10.0 0.00 0.08 0.00 84 1015.7
20260509061518 51 113 8.0 12.0 0.00 0.08 0.00 84 1015.7
20260509061021 51 117 9.0 12.0 0.00 0.08 0.00 84 1015.7
20260509060520 51 98 8.0 13.0 0.00 0.08 0.00 83 1015.7
20260509060018 51 134 9.0 13.0 0.00 0.08 0.00 83 1015.6
20260509055517 51 119 9.0 12.0 0.00 0.08 0.00 83 1015.5
20260509055019 51 119 7.0 11.0 0.00 0.08 0.00 82 1015.4
20260509054521 51 122 8.0 11.0 0.00 0.08 0.00 83 1015.4
20260509054014 51 117 9.0 12.0 0.00 0.08 0.00 82 1015.4
20260509053514 51 119 9.0 12.0 0.00 0.08 0.00 82 1015.4
20260509053014 51 109 8.0 10.0 0.00 0.08 0.00 81 1015.4
20260509052514 52 118 8.0 11.0 0.00 0.08 0.00 81 1015.4
20260509052016 51 127 8.0 11.0 0.00 0.08 0.00 82 1015.4
20260509051520 51 117 8.0 13.0 0.00 0.08 0.00 82 1015.4
20260509051012 51 121 8.0 13.0 0.00 0.08 0.00 81 1015.3
20260509050513 52 117 8.0 12.0 0.00 0.08 0.00 81 1015.3
20260509050019 52 126 8.0 11.0 0.00 0.08 0.00 81 1015.2
20260509045515 52 119 8.0 13.0 0.00 0.08 0.00 82 1015.2
20260509045012 51 104 9.0 13.0 0.00 0.08 0.00 82 1015.1
20260509044514 51 109 8.0 13.0 0.00 0.08 0.00 82 1015.1
20260509044010 52 112 9.0 12.0 0.00 0.08 0.00 81 1015.0
20260509043513 52 121 8.0 11.0 0.00 0.08 0.00 81 1015.1
20260509043009 52 133 7.0 10.0 0.00 0.08 0.00 82 1015.1
20260509042508 52 117 7.0 10.0 0.00 0.08 0.00 81 1015.1
20260509042007 52 136 6.0 11.0 0.00 0.08 0.00 81 1015.0
20260509041507 52 110 8.0 11.0 0.00 0.08 0.00 82 1015.1
20260509041008 52 117 7.0 11.0 0.00 0.08 0.00 83 1015.2
20260509040506 52 122 8.0 11.0 0.00 0.08 0.00 83 1015.2
20260509040006 52 129 7.0 12.0 0.00 0.08 0.00 83 1015.2
20260509035510 52 109 8.0 12.0 0.00 0.08 0.00 83 1015.2
20260509035006 52 119 8.0 12.0 0.00 0.08 0.00 83 1015.1
20260509034504 52 119 9.0 12.0 0.00 0.08 0.00 83 1015.1
20260509034004 53 130 8.0 12.0 0.00 0.08 0.00 83 1015.2
20260509033504 52 114 6.0 12.0 0.00 0.08 0.00 83 1015.2
20260509033005 52 129 9.0 13.0 0.00 0.08 0.00 83 1015.2
20260509032504 52 118 8.0 13.0 0.00 0.08 0.00 83 1015.2
20260509032003 52 128 9.0 12.0 0.00 0.08 0.00 84 1015.2
20260509031503 52 124 7.0 11.0 0.00 0.08 0.00 84 1015.2
20260509031001 52 111 8.0 11.0 0.00 0.08 0.00 84 1015.2
20260509030501 52 109 8.0 10.0 0.00 0.08 0.00 83 1015.2
20260509030100 52 109 7.0 10.0 0.00 0.08 0.00 83 1015.2
20260509025559 52 111 6.0 9.0 0.00 0.08 0.00 82 1015.1
20260509025059 53 109 5.0 9.0 0.00 0.08 0.00 82 1015.1
20260509024557 53 104 4.0 10.0 0.00 0.08 0.00 83 1015.2
20260509024057 52 113 7.0 10.0 0.00 0.08 0.00 81 1015.3
20260509023557 53 106 7.0 10.0 0.00 0.08 0.00 81 1015.3
20260509023101 53 119 6.0 10.0 0.00 0.08 0.00 81 1015.3
20260509022554 53 109 7.0 10.0 0.00 0.08 0.00 82 1015.4
20260509022056 52 123 4.0 10.0 0.00 0.08 0.00 81 1015.5
20260509021553 52 121 7.0 12.0 0.00 0.08 0.00 81 1015.5
20260509021051 52 113 9.0 12.0 0.00 0.08 0.00 81 1015.5
20260509020554 52 121 7.0 11.0 0.00 0.08 0.00 80 1015.5
20260509020055 53 98 6.0 10.0 0.00 0.08 0.00 80 1015.6
20260509015548 53 115 7.0 10.0 0.00 0.08 0.00 79 1015.6
20260509015047 54 119 3.0 8.0 0.00 0.08 0.00 80 1015.7
20260509014547 54 78 4.0 8.0 0.00 0.08 0.00 80 1015.7
20260509014049 54 137 2.0 9.0 0.00 0.08 0.00 81 1015.8
20260509013546 53 115 7.0 10.0 0.00 0.08 0.00 81 1015.8
20260509013106 53 121 4.0 11.0 0.00 0.08 0.00 81 1015.9
20260509012542 54 116 8.0 11.0 0.00 0.08 0.00 80 1016.0
20260509012042 54 121 5.0 9.0 0.00 0.08 0.00 80 1016.0
20260509011543 54 114 5.0 9.0 0.00 0.08 0.00 80 1016.0
20260509011041 54 135 5.0 9.0 0.00 0.08 0.00 80 1016.0
20260509010542 54 119 5.0 10.0 0.00 0.08 0.00 80 1016.1
20260509010040 54 130 7.0 10.0 0.00 0.08 0.00 79 1016.1
20260509005538 54 110 5.0 9.0 0.00 0.08 0.00 80 1016.1
20260509005039 54 137 6.0 9.0 0.00 0.08 0.00 79 1016.1
20260509004537 54 136 4.0 9.0 0.00 0.08 0.00 79 1016.2
20260509004037 54 142 4.0 10.0 0.00 0.08 0.00 79 1016.2
20260509003537 55 128 7.0 10.0 0.00 0.08 0.00 78 1016.2
20260509003036 55 134 5.0 7.0 0.00 0.08 0.00 77 1016.2
20260509002539 55 132 4.0 7.0 0.00 0.08 0.00 77 1016.3
20260509002036 55 134 3.0 11.0 0.00 0.08 0.00 78 1016.3
20260509001535 54 142 8.0 11.0 0.00 0.08 0.00 78 1016.4
20260509001035 54 114 7.0 9.0 0.00 0.08 0.00 77 1016.5
20260509000534 55 109 5.0 13.0 0.00 0.08 0.00 77 1016.5
20260509000034 55 121 5.0 13.0 0.00 0.08 0.00 77 1016.4
20260508235533 54 101 5.0 9.0 0.00 0.08 0.00 78 1016.4
20260508235032 54 127 4.0 10.0 0.00 0.08 0.00 77 1016.5
20260508234531 54 111 8.0 10.0 0.00 0.08 0.00 77 1016.6
20260508234033 55 107 6.0 10.0 0.00 0.08 0.00 77 1016.5
20260508233528 55 107 6.0 10.0 0.00 0.08 0.00 76 1016.4
20260508233027 56 84 2.0 10.0 0.00 0.08 0.00 76 1016.4
20260508232525 56 290 3.0 14.0 0.00 0.08 0.00 76 1016.3
20260508232024 57 298 9.0 14.0 0.00 0.08 0.00 75 1016.2
20260508231523 57 286 8.0 13.0 0.00 0.08 0.00 74 1016.2